[[{"header":{"parameterUnit":"m.s-1","parameterCategory":1,"la1":30.2991,"la2":30.254,"lo1":-89.0895,"lo2":-89.0444,"dy":0.0017,"dx":0.0017,"nx":28,"ny":28,"refTime":"2023-08-20T03:00:00:Z","depth":0,"parameterNumber":2,"parameterNumberName":"U-component_of_WINDS"},"data":[0,0,0,0,0,0,0,0,0,0,0,0,0,0,0,0,0,0,0,0,0,0,0,0,0,0,0,0,0,0,0,0,0,0,0,0,0,0,0,0,0,0,0,0,0,0,0,0,0,0,0,0,0,0,0,0,0,0,-4.441,-4.4411,0,-4.4442,-4.4443,-4.4443,-4.4272,-4.4267,-4.4262,-4.4257,-4.4294,-4.43,-4.4305,0,0,0,0,0,0,0,0,0,0,0,0,0,-4.4205,-4.421,-4.441,-4.4411,-4.4411,-4.4442,-4.4443,-4.4443,-4.4273,-4.4267,-4.4261,-4.4255,-4.4293,-4.4299,-4.4306,0,0,0,0,0,0,0,0,0,0,0,0,0,-4.4272,-4.4211,-4.441,-4.433,-4.4323,-4.4442,-4.4443,-4.4443,-4.4274,-4.4266,-4.4259,-4.4252,-4.429,-4.4298,-4.4307,-4.4506,0,0,-4.4332,-4.4336,0,0,0,0,0,0,0,0,-4.4268,-4.4279,-4.4341,-4.4335,-4.4328,-4.4345,-4.4384,-4.4465,-4.4276,-4.4293,-4.4257,-4.4249,-4.4318,-4.4323,-4.4346,-4.4508,-4.451,-4.4333,-4.4338,-4.4342,-4.4344,0,0,0,0,0,0,0,-4.4264,-4.4277,-4.4423,-4.4342,-4.4334,-4.4293,-4.4294,-4.4398,-4.4346,-4.4291,-4.4278,-4.4284,-4.4313,-4.4338,-4.4345,-4.451,-4.4333,-4.434,-4.4345,-4.4349,-4.4838,-4.4846,0,0,0,0,0,0,-4.4269,-4.4274,-4.4422,-4.4424,-4.4279,-4.4303,-4.4304,-4.4347,-4.4345,-4.4337,-4.429,-4.4276,-4.4327,-4.4336,-4.4346,-4.4579,-4.4342,-4.435,-4.4354,-4.483,-4.484,-4.4849,0,0,0,0,0,0,-4.4266,-4.4284,-4.4421,-4.4346,-4.436,-4.4314,-4.4364,-4.4352,-4.4377,-4.4344,-4.4335,-4.4326,-4.4322,-4.4334,-4.4467,-4.4578,-4.4353,-4.4361,-4.4821,-4.4833,-4.4844,-4.5049,0,0,0,0,0,0,-4.426,-4.4284,-4.4358,-4.4349,-4.4365,-4.4541,-4.4371,-4.4358,-4.4391,-4.4373,-4.4375,-4.4368,-4.4317,-4.4456,-4.4476,-4.4586,-4.4367,-4.4811,-4.4826,-4.484,-4.5032,-4.5066,-4.5095,0,0,0,0,0,-4.4254,-4.4416,-4.4363,-4.4382,-4.4457,-4.4548,-4.4557,-4.4493,-4.4401,-4.4476,-4.4455,-4.4368,-4.4563,-4.4471,-4.4492,-4.4606,-4.4803,-4.4822,-4.4839,-4.5018,-4.5059,-4.5095,0,0,0,0,0,0,-4.4441,-4.4413,-4.4354,-4.4517,-4.4536,-4.4519,-4.4611,-4.454,-4.4586,-4.4567,-4.4488,-4.449,-4.4637,-4.4634,-4.4533,-4.4799,-4.4667,-4.469,-4.4796,-4.4835,-4.4866,-4.4864,-4.4374,0,0,0,0,0,-4.4501,-4.4576,-4.4548,-4.4695,-4.4707,-4.4658,-4.4696,-4.4645,-4.4662,-4.4669,-4.4658,-4.4679,-4.4744,-4.4789,-4.4848,-4.503,-4.5029,-4.5119,-4.5151,-4.5177,-4.5199,-4.5295,-4.5336,-4.4907,-4.4907,-4.4907,0,0,-4.4627,-4.462,-4.4673,-4.4732,-4.4741,-4.4822,-4.4666,-4.4758,-4.4818,-4.4683,-4.4808,-4.4801,-4.4819,-4.4978,-4.5047,-4.4981,-4.5316,-4.52,-4.5222,-4.5228,-4.5318,-4.5359,-4.5395,-4.492,-4.4917,-4.4916,0,0,-4.4896,-4.4899,-4.5021,-4.5033,-4.5047,-4.5013,-4.5043,-4.5037,-4.5026,-4.515,-4.5051,-4.5121,-4.5236,-4.5253,-4.5276,-4.5553,-4.5475,-4.5574,-4.5741,-4.5836,-4.587,-4.59,-4.5999,-4.6035,-4.5595,-4.5596,-4.5596,0,-4.5051,-4.5167,-4.5094,-4.5192,-4.5222,-4.5102,-4.5227,-4.5242,-4.5276,-4.53,-4.5224,-4.5365,-4.5369,-4.553,-4.5597,-4.562,-4.5653,-4.5574,-4.5871,-4.59,-4.5926,-4.602,-4.6058,-4.5608,-4.5606,-4.5605,-4.5604,0,-4.5356,-4.5439,-4.5536,-4.557,-4.5611,-4.5722,-4.5667,-4.5717,-4.5663,-4.5638,-4.5766,-4.5766,-4.5822,-4.5857,-4.5806,-4.6012,-4.597,-4.5884,-4.575,-4.598,-4.6067,-4.6102,-4.5625,-4.5621,-4.5617,-4.5614,0,0,-4.5746,-4.5737,-4.5774,-4.5788,-4.5795,-4.5858,-4.5964,-4.6018,-4.6063,-4.609,-4.6178,-4.6278,-4.6198,-4.6225,-4.6175,-4.6259,-4.6478,-4.6162,-4.6161,-4.6222,-4.6706,-4.6772,-4.6814,-4.6426,-4.6433,-4.6438,-4.6705,0,-4.6009,-4.6189,-4.6126,-4.631,-4.6386,-4.6273,-4.6366,-4.6381,-4.6361,-4.6423,-4.64,-4.6473,-4.6362,-4.6377,-4.6455,-4.6435,-4.6575,-4.6415,-4.6509,-4.6513,-4.6508,-4.6859,-4.6928,-4.718,-4.6739,-4.6744,-4.6748,0,-4.6342,-4.6381,-4.6572,-4.6566,-4.6595,-4.6679,-4.6724,-4.6784,-4.68,-4.6779,-4.681,-4.6741,-4.6846,-4.6712,-4.6856,-4.6749,-4.6783,-4.678,-4.6788,-4.6795,-4.6645,-4.6877,-4.7259,-4.7298,-4.6801,-4.6797,-4.6793,0,-4.6607,-4.6708,-4.6835,-4.685,-4.6846,-4.6908,-4.691,-4.6917,-4.6954,-4.6993,-4.7016,-4.7069,-4.7098,-4.714,-4.7088,-4.6995,-4.7241,-4.7101,-4.7228,-4.7229,-4.7285,-4.7282,-4.7679,-4.7307,-4.7306,-4.7306,-4.7305,0,-4.6909,-4.703,-4.6954,-4.7033,-4.7165,-4.7093,-4.7227,-4.7216,-4.7224,-4.7299,-4.7206,-4.7279,-4.7205,-4.7272,-4.7232,-4.7358,-4.7372,-4.7359,-4.7347,-4.7368,-4.737,-4.739,-4.7371,-4.7316,-4.7313,-4.7311,-4.731,0,-4.7228,-4.7181,-4.7313,-4.7298,-4.7297,-4.7396,-4.7384,-4.7456,-4.7429,-4.7525,-4.7544,-4.7502,-4.7575,-4.7527,-4.7602,-4.7575,-4.7741,-4.7704,-4.7735,-4.7726,-4.7855,-4.7844,-4.8279,-4.8333,-4.7926,-4.793,-4.7933,0,-4.7424,-4.7514,-4.7509,-4.7552,-4.7559,-4.763,-4.7666,-4.7598,-4.764,-4.7665,-4.7735,-4.78,-4.7849,-4.7972,-4.7949,-4.8006,-4.7971,-4.8119,-4.7979,-4.7997,-4.7974,-4.7969,-4.7978,-4.8148,-4.8153,-4.8157,-4.816,0,-4.7777,-4.7749,-4.7804,-4.7852,-4.7898,-4.7933,-4.796,-4.8001,-4.7933,-4.7986,-4.8059,-4.8097,-4.8172,-4.8239,-4.8286,-4.8289,-4.8215,-4.8204,-4.8236,-4.8259,-4.8273,-4.8268,-4.7813,-4.8195,-4.8191,-4.8189,-4.8187,-4.8185,-4.804,-4.8115,-4.8123,-4.8188,-4.8201,-4.8229,-4.8296,-4.8277,-4.8336,-4.8392,-4.8348,-4.8436,-4.845,-4.8506,-4.8518,-4.8587,-4.8526,-4.8573,-4.8585,-4.8598,-4.8616,-4.8262,-4.8595,-4.8594,-4.8593,-4.8592,-4.8591,0,-4.8388,-4.8387,-4.8448,-4.8488,-4.854,-4.8463,-4.849,-4.8538,-4.8616,-4.8634,-4.8684,-4.8769,-4.8833,-4.8815,-4.8872,-4.8931,-4.8898,-4.8949,-4.8944,-4.8946,-4.8666,-4.8633,-4.8974,-4.8974,-4.8974,-4.8974,-4.8974,-4.8974,-4.8575,-4.8699,-4.8672,-4.8802,-4.88,-4.8884,-4.8906,-4.8932,-4.8946,-4.9044,-4.9096,-4.9083,-4.9088,-4.9145,-4.9201,-4.9194,-4.922,-4.9283,-4.9264,-4.9003,-4.8966,-4.893,-4.8898,-4.9289,-4.929,-4.9538,-4.954,-4.9542]},{"header":{"parameterUnit":"m.s-1","parameterCategory":1,"la1":30.2991,"la2":30.254,"lo1":-89.0895,"lo2":-89.0444,"dy":0.0017,"dx":0.0017,"nx":28,"ny":28,"refTime":"2023-08-20T03:00:00:Z","depth":0,"parameterNumber":3,"parameterNumberName":"V-component_of_WINDS"},"data":[0,0,0,0,0,0,0,0,0,0,0,0,0,0,0,0,0,0,0,0,0,0,0,0,0,0,0,0,0,0,0,0,0,0,0,0,0,0,0,0,0,0,0,0,0,0,0,0,0,0,0,0,0,0,0,0,0,0,-1.5037,-1.5037,0,-1.503,-1.503,-1.503,-1.5072,-1.5073,-1.5074,-1.5076,-1.5064,-1.5062,-1.5061,0,0,0,0,0,0,0,0,0,0,0,0,0,-1.508,-1.5079,-1.5037,-1.5037,-1.5037,-1.503,-1.503,-1.503,-1.5072,-1.5073,-1.5075,-1.5076,-1.5064,-1.5062,-1.5061,0,0,0,0,0,0,0,0,0,0,0,0,0,-1.5066,-1.5079,-1.5037,-1.5057,-1.5059,-1.503,-1.503,-1.503,-1.5072,-1.5073,-1.5075,-1.5077,-1.5065,-1.5063,-1.506,-1.5011,0,0,-1.5054,-1.5053,0,0,0,0,0,0,0,0,-1.5067,-1.5064,-1.5054,-1.5055,-1.5057,-1.5054,-1.5041,-1.5023,-1.5071,-1.5066,-1.5076,-1.5078,-1.5059,-1.5057,-1.5052,-1.501,-1.501,-1.5054,-1.5052,-1.5051,-1.5051,0,0,0,0,0,0,0,-1.5068,-1.5065,-1.5034,-1.5054,-1.5056,-1.5064,-1.5064,-1.5038,-1.5052,-1.5067,-1.507,-1.5069,-1.506,-1.5054,-1.5052,-1.501,-1.5054,-1.5052,-1.505,-1.505,-1.4924,-1.4922,0,0,0,0,0,0,-1.5067,-1.5065,-1.5034,-1.5034,-1.5067,-1.5062,-1.5062,-1.5053,-1.5053,-1.5055,-1.5067,-1.5071,-1.5056,-1.5054,-1.5051,-1.4991,-1.5051,-1.5049,-1.5048,-1.4926,-1.4923,-1.4921,0,0,0,0,0,0,-1.5067,-1.5063,-1.5034,-1.505,-1.5047,-1.5059,-1.5049,-1.5052,-1.5046,-1.5053,-1.5055,-1.5059,-1.5058,-1.5054,-1.502,-1.4991,-1.5048,-1.5046,-1.4928,-1.4925,-1.4922,-1.4871,0,0,0,0,0,0,-1.5068,-1.5063,-1.5046,-1.505,-1.5046,-1.5005,-1.5047,-1.5051,-1.5043,-1.5047,-1.5046,-1.5047,-1.5059,-1.5023,-1.5018,-1.4989,-1.5045,-1.4931,-1.4927,-1.4923,-1.4875,-1.4866,-1.4859,0,0,0,0,0,-1.507,-1.5031,-1.5045,-1.5041,-1.5025,-1.5003,-1.5001,-1.5017,-1.504,-1.5022,-1.5026,-1.5047,-1.4996,-1.5019,-1.5014,-1.4984,-1.4933,-1.4928,-1.4924,-1.4879,-1.4868,-1.4859,0,0,0,0,0,0,-1.5022,-1.5032,-1.5047,-1.5009,-1.5005,-1.501,-1.4988,-1.5006,-1.4994,-1.4998,-1.5017,-1.5016,-1.4978,-1.4978,-1.5004,-1.4934,-1.4968,-1.4962,-1.4935,-1.4925,-1.4917,-1.4917,-1.5043,0,0,0,0,0,-1.5008,-1.4991,-1.5,-1.4965,-1.4962,-1.4975,-1.4966,-1.4979,-1.4975,-1.4973,-1.4975,-1.4969,-1.4951,-1.4939,-1.4923,-1.4876,-1.4874,-1.4852,-1.4844,-1.4838,-1.4831,-1.4803,-1.4793,-1.4906,-1.4906,-1.4906,0,0,-1.4976,-1.498,-1.4968,-1.4956,-1.4954,-1.4934,-1.4973,-1.4951,-1.4935,-1.4969,-1.4937,-1.4938,-1.4932,-1.489,-1.4872,-1.4889,-1.48,-1.4832,-1.4826,-1.4824,-1.4797,-1.4787,-1.4777,-1.4903,-1.4904,-1.4904,0,0,-1.4909,-1.4911,-1.4881,-1.4879,-1.4877,-1.4886,-1.4878,-1.4881,-1.4883,-1.4851,-1.4875,-1.4856,-1.4826,-1.482,-1.4813,-1.4742,-1.476,-1.4737,-1.4693,-1.4666,-1.4657,-1.4649,-1.462,-1.461,-1.4731,-1.4731,-1.4731,0,-1.487,-1.4843,-1.4863,-1.4839,-1.4831,-1.4863,-1.4831,-1.4828,-1.4819,-1.4812,-1.4832,-1.4794,-1.4792,-1.4748,-1.4731,-1.4725,-1.4715,-1.4736,-1.4657,-1.4649,-1.4642,-1.4615,-1.4604,-1.4728,-1.4728,-1.4729,-1.4729,0,-1.4793,-1.4774,-1.475,-1.4742,-1.4732,-1.4704,-1.4719,-1.4706,-1.4719,-1.4725,-1.4691,-1.469,-1.4674,-1.4665,-1.4678,-1.4622,-1.4632,-1.4654,-1.4687,-1.4627,-1.4602,-1.4592,-1.4724,-1.4725,-1.4726,-1.4726,0,0,-1.4694,-1.4699,-1.4689,-1.4685,-1.4684,-1.4668,-1.4641,-1.4626,-1.4614,-1.4607,-1.4582,-1.4556,-1.4576,-1.4567,-1.458,-1.4556,-1.4496,-1.4581,-1.4581,-1.4562,-1.4431,-1.4412,-1.44,-1.4509,-1.4507,-1.4506,-1.443,0,-1.4626,-1.4581,-1.4598,-1.455,-1.4531,-1.456,-1.4536,-1.4531,-1.4536,-1.4518,-1.4523,-1.4503,-1.4533,-1.4527,-1.4506,-1.4508,-1.4469,-1.4514,-1.4483,-1.4482,-1.4481,-1.4387,-1.4368,-1.4296,-1.4421,-1.4419,-1.4418,0,-1.454,-1.453,-1.4481,-1.4482,-1.4475,-1.4453,-1.4439,-1.4424,-1.4418,-1.4423,-1.4414,-1.4431,-1.4401,-1.4437,-1.4395,-1.4425,-1.4413,-1.4412,-1.441,-1.4405,-1.4444,-1.4377,-1.4274,-1.4262,-1.4403,-1.4405,-1.4406,0,-1.4468,-1.4444,-1.441,-1.4406,-1.4408,-1.4391,-1.4391,-1.4388,-1.4377,-1.4365,-1.4358,-1.4342,-1.4332,-1.4319,-1.433,-1.4356,-1.4284,-1.4322,-1.4285,-1.4284,-1.4266,-1.4266,-1.4157,-1.4264,-1.4264,-1.4264,-1.4264,0,-1.4388,-1.4356,-1.4378,-1.4357,-1.4321,-1.4341,-1.4304,-1.4307,-1.4303,-1.4281,-1.4306,-1.4285,-1.4303,-1.4282,-1.429,-1.4252,-1.4248,-1.4249,-1.4251,-1.4245,-1.4244,-1.4235,-1.4239,-1.4261,-1.4262,-1.4262,-1.4263,0,-1.4301,-1.4315,-1.428,-1.4285,-1.4285,-1.4258,-1.4261,-1.424,-1.4247,-1.4219,-1.4213,-1.4223,-1.42,-1.4211,-1.4186,-1.4192,-1.4141,-1.4152,-1.4143,-1.4145,-1.4106,-1.4108,-1.3984,-1.3967,-1.4088,-1.4087,-1.4086,0,-1.4248,-1.4224,-1.4226,-1.4214,-1.4212,-1.4193,-1.4182,-1.4201,-1.4188,-1.418,-1.4159,-1.4139,-1.4123,-1.4084,-1.4087,-1.4068,-1.4076,-1.4034,-1.4073,-1.4066,-1.4071,-1.4071,-1.4067,-1.4025,-1.4023,-1.4022,-1.4021,0,-1.4151,-1.4159,-1.4144,-1.413,-1.4118,-1.4108,-1.4099,-1.4088,-1.4106,-1.409,-1.4067,-1.4055,-1.403,-1.4008,-1.3991,-1.3988,-1.4005,-1.4009,-1.3999,-1.3991,-1.3986,-1.3985,-1.4118,-1.4011,-1.4012,-1.4013,-1.4014,-1.4014,-1.4077,-1.4056,-1.4054,-1.4035,-1.4032,-1.4023,-1.4004,-1.4009,-1.3991,-1.3973,-1.3985,-1.3957,-1.395,-1.3929,-1.3923,-1.39,-1.3916,-1.3902,-1.3898,-1.3893,-1.3887,-1.3992,-1.3897,-1.3898,-1.3898,-1.3898,-1.3898,0,-1.3978,-1.3978,-1.3961,-1.395,-1.3935,-1.3956,-1.3948,-1.3933,-1.3909,-1.3903,-1.3887,-1.3859,-1.3837,-1.3839,-1.3819,-1.3799,-1.3807,-1.3793,-1.3793,-1.3791,-1.3875,-1.3885,-1.3787,-1.3787,-1.3787,-1.3787,-1.3787,-1.3787,-1.3924,-1.3889,-1.3897,-1.3859,-1.3859,-1.3834,-1.3827,-1.3818,-1.3813,-1.3781,-1.3764,-1.3766,-1.3762,-1.3741,-1.3721,-1.3722,-1.3711,-1.3694,-1.3697,-1.3775,-1.3786,-1.3796,-1.3805,-1.3692,-1.3692,-1.3614,-1.3614,-1.3613]}]]